Location: Aniagüita
(10.0946°N, 66.9708°W)
Time: 15:50:33
(UTC+00:00)

H-2A R/B - Pass Details

Date: 30 June 2022
Orbit: 527 x 645 km, 98.3° (Epoch: 06 August)

Event Time Altitude Azimuth Distance (km) Brightness Sun altitude
Exits shadow 23:56:57 14° 67° (ENE) 1,529 4.2 -15.1°
Drops below altitude 10° 23:58:36 10° 42° (NE) 1,777 4.8 -15.4°
Sets 00:01:27 0° 17° (NNE) 2,656 6.0 -16.1°
